Location: Unspecified
(47.6578°N, 23.5640°E)
Time: 04:23:03
(UTC+02:00)

ISS - Pass Details

Date: 04 December 2017
Orbit: 402 x 407 km, 51.6° (Epoch: 10 December)

Event Time Altitude Azimuth Distance (km) Brightness Sun altitude
Rises 17:14:29 0° 243° (WSW) 2,323 2.9 -6.6°
Reaches altitude 10° 17:16:34 10° 243° (WSW) 1,464 0.8 -6.9°
Maximum altitude 17:19:51 85° 154° (SSE) 413 -3.8 -7.4°
Enters shadow 17:23:02 11° 67° (ENE) 1,425 -1.8 -7.9°
